Printer-friendly version

IAU Minor Planet Center

Minor Planet Center

MPEC 2000-E23: 2000 EB14

The following Minor Planet Electronic Circular may be linked-to from your own Web pages, but must not otherwise be redistributed electronically.


Read MPEC 2000-E22 Read MPEC 2000-E24


M.P.E.C. 2000-E23                                Issued 2000 Mar. 7, 15:35 UT

     The Minor Planet Electronic Circulars contain information on unusual
         minor planets and routine data on comets.  They are published
   on behalf of Commission 20 of the International Astronomical Union by the
          Minor Planet Center, Smithsonian Astrophysical Observatory,
                          Cambridge, MA 02138, U.S.A.

             Prepared using the Tamkin Foundation Computer Network

             BMARSDEN@CFA.HARVARD.EDU or GWILLIAMS@CFA.HARVARD.EDU
          URL http://cfa-www.harvard.edu/iau/mpc.html  ISSN 1523-6714

                                   2000 EB14

Observations:
     K00E14B* C2000 03 03.32777 11 29 30.88 +05 16 12.0                      704
     K00E14B  C2000 03 03.35784 11 29 19.53 +05 21 01.8                      704
     K00E14B  C2000 03 03.37236 11 29 14.09 +05 23 21.2                      704
     K00E14B  C2000 03 03.38667 11 29 08.72 +05 25 40.0                      704
     K00E14B  C2000 03 03.40086 11 29 03.34 +05 27 58.3                      704
     K00E14B  C2000 03 05.08837 11 17 31.60 +10 48 08.2                      557
     K00E14B  C2000 03 05.08891 11 17 31.54 +10 48 16.1                      557
     K00E14B  C2000 03 05.08944 11 17 31.16 +10 48 21.7                      557
     K00E14B  C2000 03 05.08998 11 17 31.17 +10 48 27.8                      557
     K00E14B  C2000 03 05.23159 11 16 27.73 +11 20 45.6          18.9        704
     K00E14B  C2000 03 05.24487 11 16 20.55 +11 23 48.2          18.4        704
     K00E14B  C2000 03 05.25815 11 16 13.33 +11 26 50.1          18.3        704
     K00E14B  C2000 03 05.27144 11 16 06.05 +11 29 52.8          19.2        704
     K00E14B  C2000 03 05.28473 11 15 58.74 +11 32 56.6          18.5        704
     K00E14B  C2000 03 05.30475 11 15 47.69 +11 37 32.3          18.9        704
     K00E14B  C2000 03 05.31796 11 15 40.38 +11 40 37.2          19.0        704
     K00E14B  C2000 03 05.33119 11 15 33.04 +11 43 38.7          19.1        704
     K00E14B  C2000 03 05.34441 11 15 25.63 +11 46 43.9          18.7        704
     K00E14B  C2000 03 05.35765 11 15 18.28 +11 49 47.3          19.8        704
     K00E14B  C2000 03 06.51201 11 03 57.76 +16 53 09.3          17.3 R      474
     K00E14B  C2000 03 06.51383 11 03 56.47 +16 53 39.2          17.6 R      474
     K00E14B  C2000 03 06.85093 11 00 01.73 +18 31 15.1                      611
     K00E14B  C2000 03 06.85209 11 00 00.83 +18 31 34.6                      611
     K00E14B  C2000 03 06.85640 10 59 57.54 +18 32 57.0                      611
     K00E14B  C2000 03 06.85781 10 59 56.41 +18 33 22.7                      611
     K00E14B tC2000 03 06.93736 10 58 53.27 +18 58 22.7                      046
     K00E14B tC2000 03 06.94580 10 58 46.78 +19 00 59.0                      046
     K00E14B tC2000 03 06.94706 10 58 45.71 +19 01 21.1                      046

Observer details:
046 Klet.  Observers M. Tichy, Z. Moravec.  0.57-m f/5.2 reflector + CCD.
474 Mount John Observatory, Lake Tekapo.  Observers I. P. Griffin, N. Brady.
    1.0-m f/7.7 reflector + CCD.
557 Ondrejov.  Observer P. Kusnirak.  0.65-m f/3.6 reflector + CCD.
611 Starkenburg.  Observers M. Busch, L. Kurtze.  0.45-m f/4.4 reflector + CCD.
704 Lincoln Laboratory ETS, New Mexico.  Observers M. Blythe, F. Shelly,
    M. Bezpalko, M. Elowitz, R. Huber.  Measurers J. Stuart, H. Viggh,
    R. Sayer, J. B. Evans.  1.0-m f/2.15 reflector + CCD.

Orbital elements:
2000 EB14
Epoch 2000 Feb. 26.0 TT = JDT 2451600.5                 Williams
M 264.88100              (2000.0)            P               Q
n   1.16137961     Peri.  139.53708     +0.54136773     +0.83868034
a   0.8963685      Node   162.97032     -0.81428862     +0.54060969
e   0.4993691      Incl.   11.71534     -0.20941591     +0.06600335
P   0.85           H   23.0           G   0.15
From 28 observations 2000 Mar. 3-6.

Ephemeris:
2000 EB14                a,e,i = 0.90, 0.50, 12                  q = 0.4487
Date    TT    R. A. (2000) Decl.     Delta      r     Elong.  Phase     V
2000 03 07    10 58.09   +19 19.1    0.061    1.052   165.6    13.6    17.8
2000 03 08    10 43.40   +25 07.1    0.056    1.045   158.4    20.5    17.8
2000 03 09    10 23.75   +31 57.2    0.051    1.037   149.7    28.9    17.9
2000 03 10    09 56.67   +39 40.4    0.047    1.030   139.5    38.8    18.0
2000 03 11    09 18.40   +47 43.3    0.045    1.022   128.1    49.9    18.2
2000 03 12    08 24.21   +55 00.6    0.045    1.014   116.2    61.5    18.5
2000 03 13    07 12.22   +60 07.0    0.046    1.007   104.6    72.9    18.9
2000 03 14    05 51.35   +62 04.2    0.049    0.999    93.9    83.3    19.4
2000 03 15    04 39.00   +61 12.8    0.053    0.991    84.5    92.4    19.9
2000 03 16    03 44.37   +58 46.6    0.059    0.983    76.5   100.2    20.4
2000 03 17    03 05.69   +55 48.6    0.064    0.975    69.7   106.7    21.0
2000 03 18    02 38.26   +52 51.6    0.071    0.966    64.0   112.2    21.5
2000 03 19    02 18.28   +50 08.5    0.078    0.958    59.1   116.9    22.0
2000 03 20    02 03.25   +47 42.7    0.085    0.950    54.9   120.9    22.4
2000 03 21    01 51.60   +45 33.8    0.093    0.941    51.3   124.3    22.9
2000 03 22    01 42.33   +43 39.9    0.100    0.932    48.0   127.4    23.3

Gareth V. Williams           (C) Copyright 2000 MPC           M.P.E.C. 2000-E23

Read MPEC 2000-E22 Read MPEC 2000-E24


Our Web policy. Index to the CBAT/MPC/ICQ pages.


Valid HTML 4.01!